DAL3074 KATL-KMYR

Flight info

Callsign DAL3074
Flight time 0h 47m
Altitude 33000
Route GAIRY2 IRQ CAE
Aircraft A319/M-SDE3FGHIRWY/LB1

Departure

Time 2026-05-05 23:28
Airport Hartsfield Jackson Atlanta International Airport (KATL)

Arrival

Time 2026-05-06 00:15
Airport Myrtle Beach International Airport (KMYR)
Time Latitude Longitude Altitude Speed Heading
2026-05-05 23:07 33.64230 -84.42994 1035 ft 0 kts 112°
2026-05-05 23:17 33.64234 -84.43005 1035 ft 4 kts 110°
2026-05-05 23:18 33.64242 -84.43036 1035 ft 4 kts 94°
2026-05-05 23:18 33.64239 -84.43062 1035 ft 4 kts 33°
2026-05-05 23:18 33.64232 -84.43066 1035 ft 0 kts 359°
2026-05-05 23:20 33.64251 -84.43066 1035 ft 7 kts 359°
2026-05-05 23:20 33.64322 -84.43067 1036 ft 11 kts 359°
2026-05-05 23:21 33.64401 -84.43068 1036 ft 11 kts
2026-05-05 23:21 33.64460 -84.43018 1036 ft 11 kts 70°
2026-05-05 23:21 33.64460 -84.42924 1036 ft 11 kts 88°
2026-05-05 23:21 33.64461 -84.42827 1035 ft 12 kts 89°
2026-05-05 23:22 33.64513 -84.42765 1035 ft 12 kts 21°
2026-05-05 23:22 33.64543 -84.42681 1035 ft 12 kts 90°
2026-05-05 23:22 33.64543 -84.42581 1035 ft 12 kts 90°
2026-05-05 23:22 33.64543 -84.42475 1035 ft 13 kts 90°
2026-05-05 23:23 33.64543 -84.42365 1035 ft 13 kts 90°
2026-05-05 23:23 33.64544 -84.42252 1035 ft 14 kts 90°
2026-05-05 23:23 33.64543 -84.42138 1035 ft 14 kts 90°
2026-05-05 23:23 33.64543 -84.42022 1035 ft 14 kts 90°
2026-05-05 23:24 33.64543 -84.41904 1035 ft 14 kts 89°
2026-05-05 23:24 33.64556 -84.41552 1036 ft 14 kts 112°
2026-05-05 23:25 33.64543 -84.41437 1036 ft 14 kts 90°
2026-05-05 23:25 33.64543 -84.41316 1036 ft 15 kts 90°
2026-05-05 23:25 33.64543 -84.41194 1036 ft 15 kts 90°
2026-05-05 23:25 33.64543 -84.41067 1036 ft 16 kts 90°
2026-05-05 23:26 33.64543 -84.40935 1035 ft 16 kts 90°
2026-05-05 23:26 33.64558 -84.40801 1035 ft 17 kts 63°
2026-05-05 23:26 33.64571 -84.40669 1035 ft 15 kts 90°
2026-05-05 23:26 33.64594 -84.40578 1034 ft 11 kts 33°
2026-05-05 23:27 33.64672 -84.40592 1033 ft 12 kts 318°
2026-05-05 23:27 33.64680 -84.40689 1033 ft 14 kts 270°
2026-05-05 23:27 33.64679 -84.41104 1036 ft 93 kts 270°
2026-05-05 23:27 33.64678 -84.42184 1034 ft 163 kts 269°
2026-05-05 23:28 33.64688 -84.43586 1784 ft 163 kts 268°
2026-05-05 23:28 33.64706 -84.44894 2691 ft 156 kts 266°
2026-05-05 23:28 33.64768 -84.46233 3271 ft 166 kts 268°
2026-05-05 23:28 33.64894 -84.47682 3692 ft 184 kts 272°
2026-05-05 23:29 33.65323 -84.49259 4005 ft 215 kts 290°
2026-05-05 23:29 33.66058 -84.50932 4447 ft 239 kts 294°
2026-05-05 23:29 33.66904 -84.52765 4959 ft 263 kts 294°
2026-05-05 23:29 33.67802 -84.54735 5787 ft 272 kts 297°
2026-05-05 23:30 33.69063 -84.56464 6812 ft 280 kts 316°
2026-05-05 23:30 33.70729 -84.57648 7853 ft 286 kts 334°
2026-05-05 23:30 33.72696 -84.58155 8861 ft 296 kts 353°
2026-05-05 23:30 33.74761 -84.58147 9871 ft 297 kts 355°
2026-05-05 23:31 33.76838 -84.58095 10756 ft 301 kts 359°
2026-05-05 23:31 33.78874 -84.57348 11619 ft 317 kts 25°
2026-05-05 23:31 33.80496 -84.55488 12383 ft 337 kts 52°
2026-05-05 23:31 33.81374 -84.52752 12636 ft 368 kts 78°
2026-05-05 23:32 33.81638 -84.49606 13025 ft 386 kts 87°
2026-05-05 23:32 33.81634 -84.46346 13694 ft 393 kts 91°
2026-05-05 23:32 33.81516 -84.43039 14351 ft 398 kts 92°
2026-05-05 23:32 33.81385 -84.39692 15000 ft 403 kts 91°
2026-05-05 23:33 33.81185 -84.36312 15674 ft 408 kts 97°
2026-05-05 23:33 33.80557 -84.32975 16336 ft 412 kts 108°
2026-05-05 23:33 33.79466 -84.29773 16999 ft 415 kts 118°
2026-05-05 23:33 33.78153 -84.26672 17701 ft 417 kts 118°
2026-05-05 23:34 33.76824 -84.23556 18382 ft 420 kts 118°
2026-05-05 23:34 33.75482 -84.20425 18936 ft 424 kts 118°
2026-05-05 23:34 33.74121 -84.17253 19470 ft 428 kts 118°
2026-05-05 23:34 33.72754 -84.14066 20009 ft 432 kts 118°
2026-05-05 23:35 33.71384 -84.10882 20540 ft 436 kts 118°
2026-05-05 23:35 33.69984 -84.07635 21084 ft 440 kts 118°
2026-05-05 23:35 33.68569 -84.04360 21625 ft 444 kts 118°
2026-05-05 23:35 33.67141 -84.01056 22148 ft 448 kts 118°
2026-05-05 23:36 33.65697 -83.97719 22659 ft 452 kts 118°
2026-05-05 23:36 33.64243 -83.94359 23148 ft 456 kts 118°
2026-05-05 23:36 33.62778 -83.90971 23626 ft 460 kts 118°
2026-05-05 23:36 33.61299 -83.87547 23988 ft 464 kts 118°
2026-05-05 23:37 33.59803 -83.84093 24357 ft 469 kts 118°
2026-05-05 23:37 33.58293 -83.80612 24716 ft 473 kts 118°
2026-05-05 23:37 33.56767 -83.77100 25088 ft 477 kts 117°
2026-05-05 23:37 33.55225 -83.73559 25448 ft 481 kts 117°
2026-05-05 23:38 33.53714 -83.69965 25797 ft 484 kts 113°
2026-05-05 23:38 33.52614 -83.66206 26145 ft 487 kts 103°
2026-05-05 23:38 33.52007 -83.62217 26489 ft 487 kts 92°
2026-05-05 23:38 33.51929 -83.58167 26844 ft 486 kts 82°
2026-05-05 23:39 33.52352 -83.54164 27212 ft 485 kts 75°
2026-05-05 23:39 33.52918 -83.50173 27616 ft 487 kts 75°
2026-05-05 23:39 33.53479 -83.46159 28002 ft 489 kts 75°
2026-05-05 23:39 33.54035 -83.42124 28369 ft 492 kts 75°
2026-05-05 23:40 33.54592 -83.38061 28727 ft 495 kts 75°
2026-05-05 23:40 33.55153 -83.33979 29065 ft 498 kts 75°
2026-05-05 23:40 33.55717 -83.29865 29400 ft 501 kts 75°
2026-05-05 23:40 33.56283 -83.25732 29721 ft 504 kts 75°
2026-05-05 23:41 33.56849 -83.21578 30038 ft 507 kts 75°
2026-05-05 23:41 33.57416 -83.17390 30310 ft 509 kts 75°
2026-05-05 23:41 33.57985 -83.13193 30577 ft 512 kts 75°
2026-05-05 23:41 33.58557 -83.08960 30850 ft 514 kts 75°
2026-05-05 23:42 33.59121 -83.04776 31107 ft 516 kts 75°
2026-05-05 23:42 33.59693 -83.00521 31391 ft 516 kts 75°
2026-05-05 23:42 33.60263 -82.96277 31760 ft 516 kts 74°
2026-05-05 23:42 33.60833 -82.92010 32131 ft 516 kts 74°
2026-05-05 23:43 33.61399 -82.87762 32482 ft 516 kts 74°
2026-05-05 23:43 33.61964 -82.83517 32837 ft 516 kts 73°
2026-05-05 23:43 33.62339 -82.80698 32976 ft 517 kts 73°
2026-05-05 23:43 33.62902 -82.76446 33039 ft 512 kts 73°
2026-05-05 23:44 33.64010 -82.68038 33046 ft 508 kts 73°
2026-05-05 23:44 33.65121 -82.59665 33053 ft 508 kts 73°
2026-05-05 23:45 33.66221 -82.51322 33055 ft 508 kts 74°
2026-05-05 23:45 33.67299 -82.42941 33008 ft 508 kts 74°
2026-05-05 23:46 33.68377 -82.34551 33021 ft 508 kts 74°
2026-05-05 23:46 33.69459 -82.26176 33019 ft 507 kts 74°
2026-05-05 23:47 33.70539 -82.17807 33012 ft 507 kts 74°
2026-05-05 23:47 33.71639 -82.09453 33023 ft 506 kts 73°
2026-05-05 23:48 33.72814 -82.01115 33008 ft 506 kts 73°
2026-05-05 23:48 33.73998 -81.92786 33014 ft 506 kts 73°
2026-05-05 23:49 33.75156 -81.84450 32996 ft 506 kts 73°
2026-05-05 23:49 33.76290 -81.76095 32998 ft 506 kts 73°
2026-05-05 23:50 33.77426 -81.67736 32998 ft 506 kts 73°
2026-05-05 23:50 33.78560 -81.59380 33006 ft 506 kts 74°
2026-05-05 23:51 33.79680 -81.51084 33014 ft 506 kts 74°
2026-05-05 23:51 33.80796 -81.42739 33017 ft 505 kts 74°
2026-05-05 23:52 33.81905 -81.34409 33017 ft 504 kts 74°
2026-05-05 23:52 33.83014 -81.26072 33025 ft 504 kts 74°
2026-05-05 23:53 33.84109 -81.17739 33042 ft 503 kts 74°
2026-05-05 23:53 33.85197 -81.09434 33039 ft 503 kts 74°
2026-05-05 23:54 33.85797 -81.01014 33044 ft 510 kts 83°
2026-05-05 23:54 33.85904 -80.92487 33023 ft 509 kts 83°
2026-05-05 23:55 33.86012 -80.83968 32790 ft 508 kts 84°
2026-05-05 23:55 33.86066 -80.79722 32007 ft 508 kts 84°
2026-05-05 23:55 33.86121 -80.75478 31277 ft 506 kts 85°
2026-05-05 23:56 33.86175 -80.71248 30522 ft 505 kts 85°
2026-05-05 23:56 33.86225 -80.67030 29700 ft 504 kts 86°
2026-05-05 23:56 33.86271 -80.62827 28939 ft 500 kts 86°
2026-05-05 23:56 33.86313 -80.58665 28212 ft 495 kts 86°
2026-05-05 23:57 33.86353 -80.54543 27482 ft 491 kts 86°
2026-05-05 23:57 33.86390 -80.50439 26764 ft 487 kts 87°
2026-05-05 23:57 33.86430 -80.46381 26055 ft 484 kts 87°
2026-05-05 23:57 33.86471 -80.42346 25354 ft 480 kts 87°
2026-05-05 23:58 33.86511 -80.38339 24666 ft 477 kts 87°
2026-05-05 23:58 33.86548 -80.34359 24011 ft 474 kts 87°
2026-05-05 23:58 33.86584 -80.30413 23300 ft 471 kts 87°
2026-05-05 23:58 33.86615 -80.26539 22664 ft 465 kts 88°
2026-05-05 23:59 33.86646 -80.22629 22079 ft 458 kts 88°
2026-05-05 23:59 33.86675 -80.18872 21513 ft 453 kts 88°
2026-05-05 23:59 33.86702 -80.15059 20969 ft 447 kts 88°
2026-05-05 23:59 33.86725 -80.11331 20420 ft 443 kts 88°
2026-05-06 00:00 33.86747 -80.07687 19879 ft 440 kts 88°
2026-05-06 00:00 33.86770 -80.04018 19326 ft 437 kts 88°
2026-05-06 00:00 33.86795 -80.00323 18769 ft 435 kts 88°
2026-05-06 00:00 33.86819 -79.96738 18182 ft 434 kts 88°
2026-05-06 00:01 33.86839 -79.93125 17585 ft 430 kts 88°
2026-05-06 00:01 33.86855 -79.89523 17092 ft 426 kts 88°
2026-05-06 00:01 33.86869 -79.85984 16584 ft 422 kts 88°
2026-05-06 00:01 33.86883 -79.82470 16024 ft 419 kts 89°
2026-05-06 00:02 33.86897 -79.78982 15481 ft 415 kts 89°
2026-05-06 00:02 33.86909 -79.75526 14965 ft 411 kts 89°
2026-05-06 00:02 33.86923 -79.72100 14444 ft 407 kts 89°
2026-05-06 00:02 33.86936 -79.68706 13908 ft 403 kts 90°
2026-05-06 00:03 33.86948 -79.65345 13310 ft 399 kts 90°
2026-05-06 00:03 33.86961 -79.62027 12666 ft 393 kts 90°
2026-05-06 00:03 33.86973 -79.58772 11711 ft 385 kts 90°
2026-05-06 00:03 33.86984 -79.55587 11077 ft 373 kts 90°
2026-05-06 00:04 33.86992 -79.52531 10561 ft 358 kts 90°
2026-05-06 00:04 33.86998 -79.49637 10418 ft 333 kts 90°
2026-05-06 00:04 33.87002 -79.46935 10184 ft 316 kts 91°
2026-05-06 00:04 33.87003 -79.44331 9809 ft 306 kts 91°
2026-05-06 00:05 33.87004 -79.39222 9561 ft 303 kts 92°
2026-05-06 00:05 33.87007 -79.36692 9288 ft 303 kts 91°
2026-05-06 00:05 33.87011 -79.34143 8852 ft 303 kts 92°
2026-05-06 00:06 33.87011 -79.31627 8486 ft 299 kts 92°
2026-05-06 00:06 33.87008 -79.29138 7978 ft 296 kts 92°
2026-05-06 00:06 33.87008 -79.26673 7360 ft 293 kts 92°
2026-05-06 00:06 33.87010 -79.24237 6771 ft 290 kts 92°
2026-05-06 00:07 33.87012 -79.21826 6181 ft 286 kts 93°
2026-05-06 00:07 33.87013 -79.19455 5593 ft 281 kts 93°
2026-05-06 00:07 33.87011 -79.17120 4990 ft 277 kts 93°
2026-05-06 00:07 33.87006 -79.14823 4450 ft 272 kts 93°
2026-05-06 00:08 33.87001 -79.12576 4142 ft 262 kts 93°
2026-05-06 00:08 33.87001 -79.10456 4080 ft 246 kts 94°
2026-05-06 00:08 33.87001 -79.08454 4004 ft 232 kts 94°
2026-05-06 00:08 33.87000 -79.06569 3916 ft 220 kts 94°
2026-05-06 00:09 33.86996 -79.04742 3816 ft 217 kts 95°
2026-05-06 00:09 33.86990 -79.02930 3726 ft 216 kts 95°
2026-05-06 00:09 33.86960 -79.01125 3552 ft 214 kts 102°
2026-05-06 00:09 33.86561 -78.99483 3412 ft 204 kts 121°
2026-05-06 00:10 33.85755 -78.98123 3255 ft 196 kts 139°
2026-05-06 00:10 33.84680 -78.97184 3061 ft 188 kts 156°
2026-05-06 00:10 33.83467 -78.96706 2865 ft 180 kts 170°
2026-05-06 00:10 33.82262 -78.96406 2616 ft 174 kts 170°
2026-05-06 00:11 33.81099 -78.96115 2390 ft 168 kts 170°
2026-05-06 00:11 33.79968 -78.95833 2163 ft 164 kts 169°
2026-05-06 00:11 33.78867 -78.95557 1955 ft 160 kts 169°
2026-05-06 00:11 33.77809 -78.95292 1743 ft 148 kts 169°
2026-05-06 00:12 33.76846 -78.95051 1558 ft 134 kts 170°
2026-05-06 00:12 33.75966 -78.94830 1394 ft 126 kts 169°
2026-05-06 00:12 33.75111 -78.94617 1220 ft 126 kts 170°
2026-05-06 00:12 33.74265 -78.94405 1077 ft 123 kts 170°
2026-05-06 00:13 33.73420 -78.94194 906 ft 126 kts 170°
2026-05-06 00:13 33.72572 -78.93977 693 ft 124 kts 171°
2026-05-06 00:13 33.71737 -78.93759 568 ft 122 kts 171°
2026-05-06 00:13 33.70901 -78.93563 424 ft 122 kts 169°
2026-05-06 00:14 33.70072 -78.93354 240 ft 122 kts 169°
2026-05-06 00:14 33.69257 -78.93151 93 ft 121 kts 168°
2026-05-06 00:14 33.68476 -78.92957 31 ft 100 kts 168°
2026-05-06 00:14 33.67964 -78.92829 33 ft 51 kts 168°
2026-05-06 00:15 33.67740 -78.92774 32 ft 27 kts 166°
2026-05-06 00:15 33.67580 -78.92684 31 ft 25 kts 144°
2026-05-06 00:15 33.67470 -78.92550 32 ft 17 kts 107°
2026-05-06 00:15 33.67505 -78.92515 32 ft 5 kts 349°
2026-05-06 00:16 33.67565 -78.92528 32 ft 12 kts 347°
2026-05-06 00:16 33.67652 -78.92550 32 ft 13 kts 349°
2026-05-06 00:16 33.67743 -78.92571 32 ft 14 kts 348°
2026-05-06 00:16 33.67839 -78.92593 32 ft 14 kts 349°
2026-05-06 00:17 33.67940 -78.92617 32 ft 15 kts 348°
2026-05-06 00:17 33.68044 -78.92644 32 ft 14 kts 348°
2026-05-06 00:17 33.68117 -78.92628 32 ft 11 kts 13°
2026-05-06 00:17 33.68178 -78.92586 32 ft 11 kts 60°
2026-05-06 00:18 33.68211 -78.92504 32 ft 11 kts 58°
2026-05-06 00:18 33.68214 -78.92444 32 ft 6 kts 99°
2026-05-06 00:18 33.68212 -78.92408 32 ft 0 kts 91°